Location: *
(52.2090°N, 4.1550°W)
Time: 22:34:21
(UTC+00:00)

Cosmos 1500 Rocket - Pass Details

Date: 23 October 2019
Orbit: 603 x 631 km, 82.5° (Epoch: 20 November)

Event Time Altitude Azimuth Distance (km) Brightness Sun altitude
Rises 20:59:46 0° 342° (NNW) 2,939 7.6 -35.5°
Reaches altitude 10° 21:02:10 10° 333° (NNW) 2,024 6.8 -35.8°
Enters shadow 21:03:28 18° 323° (NW) 1,580 6.2 -36.0°
